Retour au catalogue

SL-6 R/B(2)

ActifHEO
NORAD 13897·ROCKET BODY·🇷🇺 Russia

Lancé Mar 16, 1983 depuis Plesetsk Cosmodrome

Loading…

Prochains Passages (prochaines 24 heures)

TLE

FraisSource: Space-Track

Époque: Sep 9, 2026, 20:28 UTC

1 13897U 83019D   26252.85331886  .00000596  00000-0  00000-0 0  9998
2 13897  62.6999 192.3936 7025771 277.2296  14.3243  1.97337191312305

Suivez SL-6 R/B(2) en temps réel avec AllMySat

Download on the App Store